Kosmos-1110

operational
NORAD ID: 11425 Int'l Des: 1979-060 Owner: GUKOSR Country: SU
LEOCIRCULAR

Über Kosmos-1110

Beschreibung wird geladen...

Live-Position

3D-Globus wird geladen...

Nächste Überflüge

Höhenverlauf

Altitude vs Time

uPlot chart will show altitude changes over time

Zweizeiliger Elementsatz

1 11425U 79060A 25279.14989000 .00000265 00000-0 10397-3 0 9997
2 11425 74.0164 354.0194 0012887 120.7423 239.5000 14.34133273417965
Epoch: 6. Okt. 2025 • Age: 6 hours

Aktueller Status

Höhe 772.9 km
Geschwindigkeit 7.47 km/s
Subsatellitenpunkt 20.71°N, 11.78°E
Startdatum 28. Juni 1979
Alter 46.2 years
Typ other

Technische Details

Klassifizierung Payload
Masse 800.00 kg
Trockenmasse 800.00 kg
Gesamtmasse 800.00 kg
Länge 3.00 m
Durchmesser 2.00 m
Spannweite 3.00 m
Form Cyl
Hersteller NPOPM
Bus-Typ Strela-2M
Phasenstatus In Orbit
Besitzer/Staat GUKOSR/SU

Große Konstellationen

Loading constellations...